P. 1
NISN 2010-2011

NISN 2010-2011

|Views: 324|Likes:
Dipublikasikan oleh mohlis_may

More info:

Published by: mohlis_may on Jun 19, 2012
Hak Cipta:Attribution Non-commercial

Availability:

Read on Scribd mobile: iPhone, iPad and Android.
download as XLS, PDF, TXT or read online from Scribd
See more
See less

08/30/2013

pdf

text

original

1

NO NISN NAMA KELAMIN (L/P) TEMPAT LAHIR TGL LAHIR (YYYY-MM-DD)
1 9956897323 MUDAFIK L Bangkalan 1995-04-24
2 9928995011 MUHAMMAD ALI L Bangkalan 1992-02-22
3 9930660744 WEIL L Bangkalan 1993-03-03
4 9936891129 NURULUDDIN L Bangkalan 1993-04-10
5 9936891144 MAT ROLI L Bangkalan 1993-05-08
6 9930660745 ABDUL L Bangkalan 1993-12-20
7 9947594978 ANISAH P Bangkalan 1994-01-16
8 9947595003 ABD MALIK FAJAR L Bangkalan 1994-03-17
9 9947594418 SAMSUL L Bangkalan 1994-05-17
10 9947594619 NURUL 'AINI P Bangkalan 1994-06-15
11 9941509248 NURUL AINI P Bangkalan 1994-06-18
12 9968511681 NURUL ANWAR L Bangkalan 1994-06-26
13 9941509249 AMIRUL MUSLIM L Bangkalan 1994-07-08
14 9936891089 LIZA SAHARA P Bangkalan 1994-08-13
15 9958418954 SURYADI L Bangkalan 1994-12-19
16 9941509250 RUDI HARTONO L Bangkalan 1994-12-23
17 9952982473 MUSYAYAROH P Bangkalan 1995-01-01
18 9958451713 ROMSATUN AYU NINGSIH P Bangkalan 1995-01-18
19 9952982474 HOIRIYAH P Bangkalan 1995-01-21
20 9958419782 ROHEMAH P Pangkal Pinang 1995-02-04
21 9958476066 MARIA ULFA P Bangkalan 1995-03-16
22 9958437104 SUBAIDAH P Palangkaraya1995-03-22
23 9952982475 MOH. ADIYATULLOH LATIFL Bangkalan 1995-03-28
24 9958418967 NUR KARIMAH P Kalimantan Barat 1995-04-02
25 9958419784 NURUL MUTTAQINAH P Bangkalan 1995-04-11
26 9958476023 SUYONO L Lamongan 1995-04-27
27 9958474277 HOLIL L Bangkalan 1995-05-03
28 9952982476 IYEK ABDUL ROHMAN L Bangkalan 1995-05-07
29 9952982477 WINARTI P Bangkalan 1995-05-15
30 9926497595 KHOIRUL ANAM L Bangkalan 1995-05-24
31 9958419237 MUHAMMAD NIZER L Bangkalan 1995-06-03
32 9947594436 SULAIMAN L Bangkalan 1995-06-06
33 9952982478 BAGUS HERLIYANTO L Bojonegoro 1995-06-11
34 9958733645 ABD WADUD AMAMIL BUSORI L Bangkalan 1995-07-07
35 9958419831 USWATUN HASANAH P Bangkalan 1995-07-10
36 9958451717 MUSRIFAH P Palangkaraya1995-07-28
37 9958476072 ACH.TAUFIK QURRAHMANL Bangkalan 1995-07-28
38 9952982479 FERI MAULANA FIRMANSYAH L Sumedang 1995-07-31
39 9958419793 NUR HASANAH P Pontianak 1995-08-10
40 9958419465 SUPRIYANTO P Sambas 1995-08-13
41 9958475964 SITI KHULUD FAWADILLAHP Bangkalan 1995-08-22
42 9951263043 ROBI HALAFI L Sampang 1995-09-20
43 9952982480 ROHMAD L Singkawang1995-09-26
44 9988153601 ROBIATUL 'ADAWIYAH P Bangkalan 1995-10-01
45 9958419147 MASDARUL HAKIM L Bangkalan 1995-10-27
46 9947594381 SUNARTI P Bangkalan 1995-10-29
47 9950224405 YULISTIANA P Bangkalan 1995-11-07
48 9958437122 MOH SOLEH RAHMATULLAH L Bangkalan 1995-11-20
49 9958437126 ACH MURTADHO L Bangkalan 1995-12-18
50 9958475975 ACH.RIYANTO WIBOWO L Bangkalan 1995-12-26
51 9962908826 AMALIA ROSITA DEWI P Bangkalan 1996-01-01
52 9960188731 BADRUT TAMAM L Bangkalan 1996-01-01
53 9962908827 HOLIPAH P Bangkalan 1996-01-01
54 9968573956 SYIFAUL QULUB P Bangkalan 1996-01-06
55 9968512180 ASMA' IQOMATUL ISYA' P Bangkalan 1996-01-07
56 9968512172 FATMAWATI P Bangkalan 1996-01-30
57 9968536194 KOMARIYAH P Bangkalan 1996-02-04
58 9968532193 ATHOUR ROHMAN L Bangkalan 1996-02-10
59 9958476020 YAN SYAH L Pemangkat 1996-02-25
60 9962908828 AHMAD MAULANA L Indramayu 1996-03-16
61 9968512399 RATNA SUWARNI P Bangkalan 1996-03-21
100871154.xls.ms_office
2
ALAMAT TINGKAT NPSN
Prancak 9 20531191
Sepulu 9 20531191
Gangseyan 9 20531191
Maneron 9 20531191
Maneron 9 20531191
Banyior 9 20531191
Labuhan 9 20531191
Maneron 9 20531191
Bangsereh 9 20531191
Klabetan 9 20531191
Banyusangkah 9 20531191
Kelbung 9 20531191
Klapayan 9 20531191
Labuhan 9 20531191
Banyior 9 20531191
Labuhan 9 20531191
Banyusangkah 9 20531191
Prancak 9 20531191
Saplasah 9 20531191
Lembung 9 20531191
Sepulu 9 20531191
Prancak 9 20531191
Klabetan 9 20531191
Banyior 9 20531191
Lembung 9 20531191
Sepulu 9 20531191
Saplasah 9 20531191
Banyusangkah 9 20531191
Maneron 9 20531191
tanagurah Barat 9 20531191
Klabetan 9 20531191
Gangseyan 9 20531191
Klabetan 9 20531191
Banyoneng dajah 9 20531191
Maneron 9 20531191
Prancak 9 20531191
Sepulu 9 20531191
Maneron 9 20531191
Lembung 9 20531191
Kelbung 9 20531191
Sepulu 9 20531191
Labuhan 9 20531191
Prancak 9 20531191
Banyior 9 20531191
Gunelap 9 20531191
Banyior 9 20531191
Maneron 9 20531191
Prancak 9 20531191
Sepulu 9 20531191
Sepulu 9 20531191
Sepulu 9 20531191
Banyusangkah 9 20531191
labuhan 9 20531191
Sepulu 9 20531191
Labuhan 9 20531191
Labuhan 9 20531191
Sepulu 9 20531191
Prancak 9 20531191
Sepulu 9 20531191
Maneron 9 20531191
Maneron 9 20531191
100871154.xls.ms_office
3
62 9968512400 SODIKIN L Bangkalan 1996-03-26
63 9968574114 TUROTUN NAFISA P Bangkalan 1996-03-29
64 9968511759 NUR HAZIZAH P Sambas 1996-04-25
65 9962908829 BERLIANANDA WICAKSANAL Mojokerto 1996-04-29
66 9958419767 HANDRIYANI P Bangkalan 1996-05-19
67 9962908830 AGUS HERMANTO L Bangkalan 1996-05-22
68 9968573971 ALIYA RAHMAWATI MAJID P Bangkalan 1996-05-23
69 9968574044 NUR KAMALATIN P Bangkalan 1996-05-26
70 9968573976 USWATUN HASANAH P Bangkalan 1996-06-08
71 9960188756 MARDIANA L Bangkalan 1996-06-08
72 9968536223 ACHMAD HOIRUL ANAM L Bangkalan 1996-06-10
73 9968536237 HUMAIDI L Bangkalan 1996-06-16
74 9968573960 FADILAH KURNIATI P Bangkalan 1996-06-19
75 9962908831 ANISYAH P Bangkalan 1996-06-26
76 9968512179 ELISA P Bangkalan 1996-06-29
77 9968574050 MUZAYYANAH P Bangkalan 1996-08-02
78 9950149462 DEDI HARIANTO L Bangkalan 1996-08-06
79 9962908832 ARINAL HAQ L Bangkalan 1996-08-06
80 9968532191 WARDATUS ZAHROH P Bangkalan 1996-08-20
81 9978310703 FAHRI L Bangkalan 1996-08-20
82 9962908833 SOLIHIN L Bangkalan 1996-08-21
83 9968573993 FADHU SUFI ROHMAN L Bangkalan 1996-09-07
84 9968511828 AHMAD MUNIR L Bangkalan 1996-09-21
85 9962908834 MOH.HASIP L Bangkalan 1996-09-27
86 9968512185 HALIMATUS SAKDIYAH P Bangkalan 1996-10-04
87 9968536224 ABU WALID L Jeddah 1996-10-05
88 9968536222 NURUL IDO'AH P Bangkalan 1996-10-09
89 9968511835 MOH. ALI AKBAR L BANGKALAN1996-01-01
90 9968574060 ACHMAD KAMILUDDIN L Bangkalan 1996-10-24
91 9968574117 ERNAWATI P Sampit 1996-12-05
92 9962908835 NADIROH P Bangkalan 1996-12-11
93 9958419852 ASNAINI P Bangkalan 1996-12-12
94 9968536197 MISBAHUL MUNIR L Malaysia 1996-12-26
95 9978956005 AHMAD FAWAID L Bangkalan 1997-01-31
96 9972161873 AMIR L Bangkalan 1997-07-29
97 9978310162 MAHMUD L Bangkalan 1997-07-29
98 9930661817 MUAHMMAD JUPRI L Bangkalan 1993-12-12
99 9947595037 RAHMADI L Bangkalan 1994-08-17
100 9947594982 ACHMADHUZAINI L Bangkalan 1994-10-10
101 9952984702 LIDIA P Bangkalan 1995-01-01
102 9952984703 NURHASANAH P Bangkalan 1995-01-01
103 9958475949 YANTI SARI P Bangkalan 1995-05-05
104 9958437103 ABDUL WAZIT L Bangkalan 1995-06-03
105 9958419886 SOLIHIN L Bangkalan 1995-06-16
106 9958419829 SOFATUL WIDAD P Bangkalan 1995-06-30
107 9958419564 JONI ISKANDAR L Bangkalan 1995-08-08
108 9958419839 SAIFUL HIDAYAT L Bangkalan 1995-08-19
109 9958475965 AINUN NAJIB L Bangkalan 1995-08-31
110 9958419825 ZAINUL ARIFIN L Bangkalan 1995-09-05
111 9958419851 ACH.SOFA L Bangkalan 1995-09-12
112 9958419786 FIRMAN SUGIANTO L Bangkalan 1995-04-29
113 9958419245 SARTIKA P Bangkalan 1995-10-18
114 9958419011 AHLAN WASAHLAN L Bangkalan 1995-10-18
115 9958451710 KHOIRUL UMAM L Bangkalan 1995-11-03
116 9952984704 NURDIANA P Bangkalan 1995-11-10
117 9962921131 RISKA AULIA NABILA P Bangkalan 1996-01-01
118 9958475934 ROMADHON AINUL YAKIN L Bangkalan 1996-01-26
119 9958417571 FARIDA P Bangkalan 1996-02-02
120 9958418973 MAISAROH P Bangkalan 1996-02-15
121 9968536203 IKA SURYANA P Bangkalan 1996-03-07
122 9968511785 ENDANG RATNASIH P Bangkalan 1996-03-07
123 9968574113 RINA TRI SETYANINGTYASP Bangkalan 1996-03-18
100871154.xls.ms_office
4
Maneron 9 20531191
Sepulu 9 20531191
Kelbung 9 20531191
Prancak 9 20531191
Labuhan 9 20531191
Lembung 9 20531191
Sepulu 9 20531191
Sepulu 9 20531191
Sepulu 9 20531191
Banyusangkah 9 20531191
Prancak 9 20531191
Sepulu 9 20531191
Sepulu 9 20531191
Prancak 9 20531191
Labuhan 9 20531191
Sepulu 9 20531191
Banyusangkah 9 20531191
Prancak 9 20531191
Prancak 9 20531191
Kelbung 9 20531191
Banyusangkah 9 20531191
Sepulu 9 20531191
Banyoneng dajah 9 20531191
Maneron 9 20531191
Banyusangkah 9 20531191
Prancak 9 20531191
Prancak 9 20531191
MANERON 8 20531191
Sepulu 9 20531191
Sepulu 9 20531191
Klabetan 9 20531191
Maneron 9 20531191
Prancak 9 20531191
Banyusangkah 9 20531191
Gangseyan 9 20531191
Gangseyan 9 20531191
Gangseyan 9 20531191
Maneron 9 20531191
Masaran 9 20531191
Kalabetan 9 20531191
gangseyan 9 20531191
Sepulu 9 20531191
Prancak 9 20531191
Maneron 9 20531191
Maneron 9 20531191
Gunelap 9 20531191
Maneron 9 20531191
Sepulu 9 20531191
Maneron 9 20531191
Maneron 9 20531191
Lembung 9 20531191
Kalabetan 9 20531191
Bangsereh 9 20531191
Tanjung Putih 9 20531191
Kalabetan 9 20531191
sepulu 9 20531191
Sepulu 9 20531191
Bangsereh 9 20531191
Banyior 9 20531191
Tanjung Putih 9 20531191
Kelbung 9 20531191
Sepulu 9 20531191
100871154.xls.ms_office
5
124 9958476031 DEVI PUSPITA SARI P Bangkalan 1996-03-20
125 9968512267 DARUL HIKMAH P Bangkalan 1996-03-22
126 9968512175 JAKA RIYADI L Bangkalan 1996-03-23
127 9968511227 MUTHMAINNAYATUS SHOLEHA P Bangkalan 1996-04-04
128 9926497550 ALI SOBRI L Bangkalan 1996-05-04
129 9968573969 HARYO WICAKSONO L Bangkalan 1996-05-14
130 9968574043 MOH.AS'ARI L Bangkalan 1996-05-26
131 9950149435 MOH.JAKFAR L Bangkalan 1996-06-15
132 9968574046 HARUN AL RASYID L Bangkalan 1996-06-21
133 9968536211 FATIMATUS ZAHROH P Bangkalan 1996-06-26
134 9968512176 SITI RIAMNA P Bangkalan 1996-07-04
135 9968574148 NURUL MUBAROK L Bangkalan 1996-07-27
136 9968511896 AGUS HARIYANTO L Bangkalan 1996-08-08
137 9968574052 AGUSTINI ROHMAH P Bangkalan 1996-08-14
138 9947610935 MOH.HOLIL ASHARI L Bangkalan 1996-08-15
139 9968510439 MOHAMMAD IMRON L Bangkalan 1996-09-03
140 9968510484 PAWES ZULADIM L Bangkalan 1996-09-03
141 9968511722 ISROIL L Bangkalan 1996-09-04
142 9968536195 ATIKA WULANDARI P Bangkalan 1996-10-02
143 9958476017 ASLINA P Bangkalan 1996-10-06
144 9968536199 AFDOLUDDIN FITROTULR L Bangkalan 1996-12-31
145 9978370302 ACH.BASORI AL FARISI L Bangkalan 1997-08-17
146 9947594628 ABD. GHOFUR L Bangkalan 1993-12-05
147 9941520581 ABD. AZIS L Bangkalan 1994-01-10
148 9947594980 SITI MAIMUNA P Bangkalan 1994-03-09
149 9958476022 SANTI DEWI P Bangkalan 1994-03-22
150 9958418980 ITA PURNAMASARI P Bangkalan 1994-04-15
151 9947594620 SULI L Bangkalan 1994-06-17
152 9947635919 NUR ARIFIN WISUDARMA L Bangkalan 1994-11-09
153 9958475976 FARUSDA LAILATIL IZZATI P Bangkalan 1994-12-19
154 9947636358 MOH.MUSLEH L Bangkalan 1994-12-26
155 9952984705 AHMAD SHOLEH L Bangkalan 1995-01-01
156 9952984706 MOH.RIZAL L Bangkalan 1995-01-01
157 9952984707 MESDER L Bangkalan 1995-01-01
158 9952984708 TAJUS SUBKI L Bangkalan 1995-01-01
159 9952984709 KHOIRUL ANAM L Bangkalan 1995-01-01
160 9952984710 JEFRI HERIYANTO L Bangkalan 1995-01-01
161 9958419151 MUHAMMAD L Bangkalan 1995-01-31
162 9958476021 MOH.HANIF AINUL YAQIN L Bangkalan 1995-03-20
163 9958419162 YONGKI BUDIMAN L Bangkalan 1995-04-07
164 9958419715 AHMAD ROMADHON L Bangkalan 1995-05-03
165 9958476025 MASRONI L Bangkalan 1995-06-03
166 9952984711 KARLINA P Bangkalan 1995-06-15
167 9958419768 HOIRIL GHOZALI L Bangkalan 1995-07-05
168 9958475957 JUHRI L Bangkalan 1995-07-13
169 9958476026 ACHMAD JAKFAR TIJANI L Bangkalan 1995-09-16
170 9958437118 NURJANNAH P Bangkalan 1995-09-17
171 9968511195 MOH.HAFIFI L Bangkalan 1995-09-20
172 9958437125 MUNAWAROH P Bangkalan 1995-12-14
173 9962921132 BIMA APRIANTO L Bangkalan 1996-01-01
174 9968512263 AFNAN DANIATI P Bangkalan 1996-01-15
175 9968536192 ANDI SAPUTRA L Bangkalan 1996-01-18
176 9968512174 FARIDUL UMAM L Bangkalan 1996-03-03
177 9968573963 NOVIANA RISTI P Bangkalan 1996-03-23
178 9968574039 HASIBUR ROHMAN L Bangkalan 1996-04-05
179 9968573973 YUNI IRMAWATI P Bangkalan 1996-04-06
180 9960188707 IMAM MUHAMMAD MUHID L Bangkalan 1996-04-21
181 9962921133 MAIMUNA P Bangkalan 1996-05-06
182 9968574123 KHUSNUL HOTIMAH P Bangkalan 1996-05-12
183 9968532184 SULFANIA P Bangkalan 1996-06-02
184 9958419847 ALVIAH P Bangkalan 1996-06-16
185 9968532188 ROHMATUL HILAL P Bangkalan 1996-06-25
100871154.xls.ms_office
6
Tanjung Putih 9 20531191
Maneron 9 20531191
Masaran 9 20531191
Banyior 9 20531191
Prancak 9 20531191
Prancak 9 20531191
Sepulu 9 20531191
Banyusangkah 9 20531191
Sepulu 9 20531191
Ahatan 9 20531191
Labuhan 9 20531191
Sepulu 9 20531191
Kelbung 9 20531191
Sepulu 9 20531191
Prancak 9 20531191
Bangsereh 9 20531191
Bangsereh 9 20531191
Kelbung 8 20531191
Sepulu 9 20531191
Sepulu 9 20531191
Prancak 9 20531191
Sepulu 9 20531191
kalabetan 9 20531191
Banyior 9 20531191
Labuhan 9 20531191
Sepulu 9 20531191
Gangseyan 9 20531191
Kalabetan 9 20531191
Sepulu 9 20531191
Sepulu 9 20531191
Tanagurah Timur 9 20531191
Bangsereh 9 20531191
Banyior 9 20531191
Banyior 9 20531191
Maneron 9 20531191
sepulu 9 20531191
Gangseyan 9 20531191
Kalabetan 9 20531191
Sepulu 9 20531191
Klabetan 9 20531191
Gangseyan 9 20531191
Sepulu 9 20531191
Sepulu 9 20531191
Labuhan 9 20531191
Gunelap 9 20531191
Sepulu 9 20531191
Prancak 9 20531191
Banyior 9 20531191
Prancak 9 20531191
Bangsereh 9 20531191
Maneron 9 20531191
Prancak 9 20531191
Labuhan 9 20531191
Sepulu 9 20531191
Sepulu 9 20531191
Klabetan 9 20531191
Banyusangkah 9 20531191
Kelbung 9 20531191
Sepulu 9 20531191
Prancak 9 20531191
Maneron 9 20531191
Prancak 9 20531191
100871154.xls.ms_office
7
186 9960188749 HIDAYATUS SOFYAN L Bangkalan 1996-11-06
187 9962921134 SHOFIYAH P Bangkalan 1996-11-09
188 9968536233 MOH.FATHUR ROSI L Bangkalan 1996-11-24
189 9978370109 RIANTITA TUNJUNG SARI P Bangkalan 1997-01-13
190 9972162978 IRFAN AZIS EFENDI L Bangkalan 1997-02-07
191 9947595038 MOH HUSNUL ISMAIL P Bangkalan 1993-08-17
192 9947594825 ATOK ILLAH L Bangkalan 1994-03-19
193 9947614618 ZAINATUR ROHMAH P Bangkalan 1994-05-11
194 9947635953 HAYAD L Bangkalan 1994-06-05
195 9947594397 ROFIQOH P Bangkalan 1994-06-27
196 9948693395 SEIFUL ROHMAN L Bangkalan 1994-10-19
197 9947594428 HERI MAS'UD L Bangkalan 1994-11-04
198 9958419400 MUFARROHAH P Bangkalan 1995-04-05
199 9958437124 MUKAFI L Bangkalan 1995-04-19
200 9952984713 ATNARI L Bangkalan 1995-05-01
201 9958733636 MAISAROH P Bangkalan 1995-05-02
202 9968573975 HERVANSIS WHISTIE BIRAWA L Bangkalan 1995-06-07
203 9990072331 SANGKRIHATIN P Pacitan 1995-07-03
204 9958419838 IIS SUSANTI P Bangkalan 1995-08-15
205 9958476070 NUR ROHMAN L Bangkalan 1995-08-25
206 9958419776 YULIA P Bangkalan 1995-11-08
207 9958437121 WARDATUS SAHROH P Bangkalan 1995-11-11
208 9958451726 NURUS SA'ADAH P Palangkaraya1995-12-23
209 9968532192 SUHAIRAH P Bangkalan 1996-01-01
210 9968511742 TIMANI P Bangkalan 1996-03-11
211 9968573962 NOVAL AMIN L Bangkalan 1996-03-23
212 9968512401 SITI ANISAH P Bangkalan 1996-04-06
213 9968574041 WASILATUR ROHMAN L Bangkalan 1996-05-12
214 9968512269 SULAIHOK P Bangkalan 1996-06-05
215 9968511780 YULIANA P Bangkalan 1996-06-15
216 9958451706 FITRI YULIANTI P Palangkaraya1996-06-20
217 9968573981 HIMAYATUL LUFIANA P Bangkalan 1996-06-22
218 9960188719 FATHULLAH L Bangkalan 1996-07-14
219 9968574056 UMMUL LATIFAH P Bangkalan 1996-09-06
220 9968574151 ARI SUSANTO L Bangkalan 1996-09-21
221 9968512184 SRI RAHAYU P Bangkalan 1996-09-30
222 9962921136 KAMIATUN P Bangkalan 1996-10-09
223 9968574059 DIAN AYU OKTAVIANA P Bangkalan 1996-10-23
224 9958574061 NUR FATEHAH P Bangkalan 1996-10-24
225 9968512277 DEWI SUKMAWATI P Bangkalan 1996-10-28
226 9968532195 SYAIFUL ARIEF L Bangkalan 1996-10-28
227 9960188728 IMAM GHOZY L Bangkalan 1996-11-09
228 9962921137 KORIP ABDULLAH L Bangkalan 1996-12-07
229 9968512196 MIFTAHUL HIKMAH L Bangkalan 1996-12-15
230 9978310362 BARZANIA P Bangkalan 1997-07-21
231 9947610929 FAISAL EFENDI L BANGKALAN1994-01-28
232 9947876534 SUHAIMI L BANGKALAN1994-08-02
233 9958475962 NEMMOH L BANGKALAN1994-08-12
234 9947635920 KHOIRUL UMAM L KUALA PEMBUANG 1994-09-05
235 9947635937 ILHAM FAUZI L BANGKALAN1994-11-22
236 9958419488 DEDY YUSUF L BANGKALAN1995-02-26
237 9958419764 ABDUR ROSID L BANGKALAN1995-04-10
238 9958475945 NOFAL L BANGKALAN1995-04-18
239 9968511196 MOH. NABDI SALAM L PALANGKARAYA 1995-05-05
240 9958419826 LUKMAN L BANGKALAN1995-05-24
241 9978310088 MOH. HAKIM L PALANGKARAYA 1995-05-28
242 9968573972 RIZKI ALFIANTO L BANGKALAN1995-05-29
243 9958419833 JASIM MUNIR L BANGKALAN1995-07-25
244 9968573986 MIFTAHUL RIZKI L BANGKALAN1995-08-28
245 9958419841 HARVAN ZAINI L BANGKALAN1995-09-05
246 9950149466 SUPRIYADI L BANGKALAN1995-09-08
247 9958476024 MUSTOFA L PALANGKARAYA 1995-09-24
100871154.xls.ms_office
8
Banyusangkah 9 20531191
Maneron 9 20531191
Prancak 9 20531191
Banyior 9 20531191
Banyior 9 20531191
Maneron 9 20531191
Klapayan 9 20531191
Sepulu 9 20531191
Sepulu 9 20531191
Banyior 9 20531191
Glintong 9 20531191
Gangseyan 9 20531191
Gunelap 9 20531191
Prancak 9 20531191
Maneron 9 20531191
Banyoneng dajah 9 20531191
Sepulu 9 20531191
Sepulu 9 20531191
Maneron 9 20531191
Sepulu 9 20531191
Labuhan 9 20531191
Prancak 9 20531191
Sepulu 9 20531191
Prancak 9 20531191
Kelbung 9 20531191
Sepulu 8 20531191
Maneron 9 20531191
Sepulu 9 20531191
Maneron 9 20531191
Kelbung 9 20531191
Prancak 9 20531191
Sepulu 9 20531191
Banyusangkah 9 20531191
Sepulu 9 20531191
Sepulu 9 20531191
Labuhan 9 20531191
Tanagurah Barat 9 20531191
Sepulu 9 20531191
Sepulu 9 20531191
Maneron 9 20531191
Prancak 9 20531191
Banyusangkah 9 20531191
Prancak 9 20531191
Labuhan 9 20531191
Klabetan 9 20531191
PRANCAK 8 20531191
BANYONENG DAJAH 8 20531191
SEPULU 8 20531191
SEPULU 8 20531191
SEPULU 8 20531191
KELBUNG 8 20531191
LABUHAN 8 20531191
SEPULU 8 20531191
BANYIOR 8 20531191
MANERON 8 20531191
BANYIOR 8 20531191
SEPULU 8 20531191
MANERON 8 20531191
SEPULU 8 20531191
MANERON 8 20531191
BANYUSANGKA 8 20531191
SEPULU 8 20531191
100871154.xls.ms_office
9
248 9958419845 MUSTOFA L BANGKALAN1995-10-06
249 9958475968 IFA FITRIYANA P BANGKALAN1995-10-16
250 9958451722 NAFIATUR ROHMAH P BANGKALAN1995-11-05
251 9958419778 AMARULLAH L BANGKALAN1995-11-21
252 9958419779 NUR FUAT L BANGKALAN1995-11-26
253 9978310099 MIFTAHUL ULUM L PALANGKARAYA 1995-12-12
254 9958475940 ALFI YASIN L BANGKALAN1995-12-13
255 9958451729 SOLEHATIN P BANGKALAN1995-12-25
256 9978370230 ILHAM WAHID L BANGKALAN1996-01-01
257 9968536190 MUHAJIRIN L PALANGKARAYA 1996-01-01
258 9968798395 NURHAYATI P BANGKALAN1996-01-01
259 9968511878 MAISAROH P BANGKALAN1996-01-06
260 9988154580 MOH. JASAULLAH L BANGKALAN1996-01-08
261 9968511405 MOH. MASKUR L BANGKALAN1996-01-19
262 9960188732 IWAN HIDAYAT L BANGKALAN1996-01-25
263 9968574109 KURNIA SAPUTRI P BANGKALAN1996-01-30
264 9968573958 AINUR RISQI L BANGKALAN1996-02-07
265 9968574029 NUR AZIZAH P JEMBER 1996-02-24
266 9968574111 ABDUR RAHMAN SHALEH L BANGKALAN1996-02-25
267 9968573959 BUDIONO L BANGKALAN1996-03-03
268 9968574036 NUR HASANAH P BANGKALAN1996-03-12
269 9968574112 SITI NUR ARBAIYAH P BANGKALAN1996-03-27
270 9958419820 VAWAIT L BANGKALAN1996-03-28
271 9968536216 NURHIDAYATI P BANGKALAN1996-04-17
272 9968511411 MUNAWWAROH P BANGKALAN1996-05-02
273 9960188744 RIYA RUKMALA P BANGKALAN1996-05-12
274 9968512268 NURUL AINI P BANGKALAN1996-05-20
275 9958419766 JUHAIRIYAH L BANGKALAN1996-05-25
276 9958419495 HAFID L BANGKALAN1996-06-01
277 9968511417 MOH. PENDI TRIAWAN L BANGKALAN1996-06-02
278 9968512177 FAUSIYAH P BANGKALAN1996-06-06
279 9968573977 SARIFAH P BANGKALAN1996-06-11
280 9968536209 SYAIFUL MA'MI L BANGKALAN1996-06-11
281 9968512213 SYAFIUDDIN L BANGKALAN1996-06-12
282 9968536204 FATIMATUS ZAHROH P BANGKALAN1996-06-15
283 9968573980 KHOTIBUL UMAM SUSANTOL BANGKALAN1996-06-16
284 9960188752 JEFRI L BANGKALAN1996-06-17
285 9968512178 HENDRA ARDIANSYAH L BANGKALAN1996-06-22
286 9968532189 IMRON MARDJUKI L BANGKALAN1996-06-27
287 9960188755 SULHAM L BANGKALAN1996-07-03
288 9968573983 PUTRI HUMAYRO` P BANGKALAN1996-07-27
289 9968536217 KHOIRUL IMAM L BANGKALAN1996-07-28
290 9988153602 IIR HOIROTUNNISAH P BANGKALAN1996-07-29
291 9968573984 UMMU SALAMAH P BANGKALAN1996-08-05
292 9963529185 SAMSUL KOMARUDDIN L BANGKALAN1996-08-05
293 9968536221 INDRI FAKUSLIN P JAKARTA UTARA 1996-08-14
294 9968512181 INDAH UTAMI SISKA DEWI P BANGKALAN1996-08-17
295 9958476028 SRI MUSRIFAH P BANGKALAN1996-08-18
296 9968511414 NUR HASLINA P BANGKALAN1996-08-23
297 9968574053 MUYASSAROH P BANGKALAN1996-08-26
298 9968573987 FAIZAL AZARI PRATAMA WHATON L BANGKALAN1996-08-31
299 9968573988 SAIFUL RIZAL L BANGKALAN1996-09-02
300 9968573989 ANI LUVITA SARI P PROBOLINGGO 1996-09-15
301 9968573992 ENDANG LESTARI MAIMUNA P BANGKALAN1996-09-16
302 9968512183 SITI NUR AISYA P BANGKALAN1996-09-19
303 9968573994 MUHAMMAD MUSAWWIRUL GOFFAR L BANGKALAN1996-09-23
304 9968573995 NURUS SA'ADAH P BANGKALAN1996-09-27
305 9968512275 MOH. FAIK SHOLEH L BANGKALAN1996-10-04
306 9968512186 KOMAR L BANGKALAN1996-10-09
307 9968512187 ARIFIN L BANGKALAN1996-10-11
308 9968512188 HENDRI MASHUDI L BANGKALAN1996-10-13
309 9968512189 SYAIFUL ROHMAN L BANGKALAN1996-10-15
100871154.xls.ms_office
10
MANERON 8 20531191
SEPULU 8 20531191
PRANCAK 8 20531191
LABUHAN 8 20531191
LABUHAN 8 20531191
BANYIOR 8 20531191
SEPULU 8 20531191
PRANCAK 8 20531191
SEPULU 8 20531191
PRANCAK 8 20531191
BANYONENG DAJAH 8 20531191
KELBUNG 8 20531191
LABUHAN 8 20531191
KALABETAN 8 20531191
BANYUSANGKA 8 20531191
SEPULU 8 20531191
SEPULU 8 20531191
SEPULU 8 20531191
SEPULU 8 20531191
SEPULU 8 20531191
SEPULU 8 20531191
SEPULU 8 20531191
MANERON 8 20531191
PRANCAK 8 20531191
KALABETAN 8 20531191
BANYUSANGKA 8 20531191
MANERON 8 20531191
LABUHAN 8 20531191
KELBUNG 8 20531191
KALABETAN 8 20531191
LABUHAN 8 20531191
SEPULU 8 20531191
PRANCAK 8 20531191
LEMBUNG PASESER 8 20531191
PRANCAK 8 20531191
SEPULU 8 20531191
BANYUSANGKA 8 20531191
LABUHAN 8 20531191
PRANCAK 8 20531191
BANYUSANGKA 8 20531191
SEPULU 8 20531191
PRANCAK 8 20531191
BANYIOR 8 20531191
SEPULU 8 20531191
MANERON 8 20531191
PRANCAK 8 20531191
LABUHAN 8 20531191
SEPULU 8 20531191
PRANCAK 8 20531191
SEPULU 8 20531191
SEPULU 8 20531191
SEPULU 8 20531191
SEPULU 8 20531191
SEPULU 8 20531191
LABUHAN 8 20531191
SEPULU 8 20531191
SEPULU 8 20531191
MANERON 8 20531191
LABUHAN 8 20531191
LANUHAN 8 20531191
LABUHAN 8 20531191
LABUHAN 8 20531191
100871154.xls.ms_office
11
310 9968573997 SHOLAHUDDIN L BANGKALAN1996-10-16
311 9968512190 MUFARROHAH P BANGKALAN1996-10-17
312 9960188769 SOFIYANTO L BANGKALAN1996-10-21
313 9968512191 MUSTAIN L BANGKALAN1996-10-21
314 9968536225 FAHRUL KHAN L BANGKALAN1996-10-21
315 9960188771 SLAMET HARIADI L BANGKALAN1996-10-25
316 9968511416 SITI AULIA NURYANI P PALANGKARAYA 1996-10-29
317 9968574063 M. AINUR ROHMAN L BANGKALAN1996-11-04
318 9968536229 SOLEHAH P BANGKALAN1996-11-06
319 9968536231 MUKARROMAH P BANGKALAN1996-11-08
320 9968574122 NURUL HIKMAH P PALANGKARAYA 1996-11-09
321 9968512194 KURNIA ILAHI P BANGKALAN1996-11-26
322 9968512195 AL IHRAM L BANGKALAN1996-11-30
323 9968536210 BILQIS ANGELINA P SAUDI ARABIA 1996-12-02
324 9968512278 M. SUKRON MAKMUN L BANGKALAN1996-12-05
325 9968536240 MAISUNAH P BANGKALAN1996-12-20
326 9968574065 AZMININGRUM SUHAIFATROTIN P BANGKALAN1996-12-23
327 9968573999 BUSTOMI L BANGKALAN1996-12-31
328 9968511889 SULINAH P BANGKALAN1997-01-01
329 9978311035 IFADOTUS SALIMAH P BANGKALAN1997-01-01
330 9978311108 ACHMAD GUFRON L BANGKALAN1997-01-05
331 9978310085 NUR ISMAWATI P PALANGKARAYA 1997-01-24
332 9978319598 FAWAID ROMADHON L BANGKALAN1997-01-29
333 9978310762 ANISA SAFITRI P BANGKALAN1997-02-12
334 9978310765 FITRIA RAHMAWATI P BANGKALAN1997-02-15
335 9978370110 TAUFIQUR ROHMAN L BANGKALAN1997-02-16
336 9950149445 HOIRUS JAILANI L BANGKALAN1997-02-17
337 9978370113 AFRISAL AS'ARI L BANGKALAN1997-02-21
338 9978311036 ISTIANAH P BANGKALAN1997-02-28
339 9978332975 NOVIYANTI P BANGKALAN1997-03-07
340 9978311110 QOMARUDDIN L BANGKALAN1997-03-07
341 9968574034 MONA P BANGKALAN1997-03-16
342 9978370117 HILYATUL MILLAH P BANGKALAN1997-03-26
343 9978370173 ABROR ARIF L BANGKALAN1997-04-10
344 9978311112 AMIN TAUFIK L BANGKALAN1997-04-12
345 9978311113 MISKADI L BANGKALAN1997-04-17
346 9978332978 ROIHANA P MALAYSIA 1997-04-22
347 9978311114 ACHMAD MUJAWAS L BANGKALAN1997-04-24
348 9978370175 FAISAL KOMAR L BANGKALAN1997-05-05
349 9968574055 BADRUS SOLEH L BANGKALAN1997-05-07
350 9978319603 FIRDA P BANGKALAN1997-05-11
351 9978310092 IMMAH P BANGKALAN1997-05-19
352 9978370240 DEVI AMELIA P BANGKALAN1997-05-20
353 9972705388 NURUL IZZAH P BANGKALAN1997-05-21
354 9978370123 MOH. RIZKI WARDANY L BANGKALAN1997-05-26
355 9978370181 MUHAMMAD MAKDUM L BANGKALAN1997-05-30
356 9968511887 HAIRUS L BANGKALAN1997-06-01
357 9978370124 FAQIH WALID L BANGKALAN1997-06-02
358 9978370243 IMANIAR P BONERATE1997-06-07
359 9978311038 HANIYAH P BANGKALAN1997-06-10
360 9978956192 SOFIA P BANGKALAN1997-06-12
361 9978311126 ANJU RAHMADI L BANGKALAN1997-06-13
362 9978370451 MUSTAKIM L BANGKALAN1997-06-19
363 9978311115 MABRUROH P BANGKALAN1997-06-28
364 9972705389 FARIDAH P BANGKALAN1997-06-30
365 9978370452 HOIRUN NISAK P BANGKALAN1997-06-30
366 9978956042 RIFAL ARISANDI L BANGKALAN1997-07-04
367 9968574045 THOATUL HASNAH P BANGKALAN1997-07-06
368 9978370245 YULIANA P BANGKALAN1997-07-07
369 9978310093 YULI SARTIKA P SURABAYA1997-07-07
370 9978370186 KHOIRIN NISAK P BANGKALAN1997-07-22
371 9978370248 FAIZAL HUZEN L BANGKALAN1997-08-01
100871154.xls.ms_office
12
SEPULU 8 20531191
LABUHAN 8 20531191
BANYUSANGKA 8 20531191
LABUHAN 8 20531191
PRANCAK 8 20531191
BANYYUSANGKA 8 20531191
KALABETAN 8 20531191
SEPULU 8 20531191
PRANCAK 8 20531191
PRANCAK 8 20531191
SEPULU 8 20531191
LABUHAN 8 20531191
LABUHAN 8 20531191
PRANCAK 8 20531191
MANERON 8 20531191
PRANCAK 8 20531191
SEPULU 8 20531191
SEPULU 8 20531191
KELBUNG 8 20531191
LABUHAN 8 20531191
MANERON 8 20531191
BANYIOR 8 20531191
PRANCAK 8 20531191
KELBUNG 8 20531191
KELBUNG 8 20531191
SEPULU 8 20531191
BANYUSANGKA 8 20531191
SEPULU 8 20531191
LABUHAN 8 20531191
PRANCAK 8 20531191
MANERON 8 20531191
SEPULU 8 20531191
SEPULU 8 20531191
SEPULU 8 20531191
MANERON 8 20531191
MANERON 8 20531191
PRANCAK 8 20531191
MANERON 8 20531191
SEPULU 8 20531191
SEPULU 8 20531191
PRANCAK 8 20531191
BANYIOR 8 20531191
SEPULU 8 20531191
SEPULU 8 20531191
SEPULU 8 20531191
SEPULU 8 20531191
KELBUNG 8 20531191
SEPULU 8 20531191
SEPULU 8 20531191
LABUHAN 8 20531191
BANYUSANGKA 8 20531191
MANERON 8 20531191
TANAGURAH TIMUR 8 20531191
MANERON 8 20531191
KALABETAN 8 20531191
TANAGURAH TIMUR 8 20531191
BANYUSANGKA 8 20531191
SEPULU 8 20531191
SEPULU 8 20531191
BANYIOR 8 20531191
SEPULU 8 20531191
SEPULU 8 20531191
100871154.xls.ms_office
13
372 9978370250 FALIHATUL NAJAH P BANGKALAN1997-08-04
373 9978370130 NURUS SUBAHHI L BANGKALAN1997-08-09
374 9978370454 IMAM JAMAL L BANGKALAN1997-08-29
375 9978310096 KIPTIYAH P BANGKALAN1997-09-04
376 9978310098 LULUK TULJENNAH P PALANGKARAYA 1997-09-05
377 9978332991 LIAVIANA P BANGKALAN1997-09-14
378 9978370255 IQBALUS SURUR L BANGKALAN1997-09-16
379 9978319608 QURROTUL AINY P BANGKALAN1997-09-20
380 9970525330 SITI MUSEYYEROH P BANGKALAN1997-09-26
381 9978310775 MAIMUNA P BANGKALAN1997-09-30
382 9978319609 IRNA ROSYIDAH P BANGKALAN1997-10-10
383 9958419247 SITI MARYAM P BANGKALAN1997-10-12
384 9978310774 IKLIMAH P BANGKALAN1997-10-12
385 9978311127 SITI MAISAROH P BANGKALAN1997-10-15
386 9960188753 NURUL ALFIYAH P BANGKALAN1997-10-17
387 9978311129 SOFIATUN P BANGKALAN1997-11-10
388 9968532197 BAIQ SITI NOER AZIMA P BANGKALAN1997-11-11
389 9968512192 KAMALIA PUTRI NINGSIH P BANGKALAN1997-11-15
390 9978370460 MILANUR AINI P BANGKALAN1997-11-18
391 9978332995 AISYAH P BANGKALAN1997-11-24
392 9958419233 MOH. ARIF L BANGKALAN1997-11-25
393 9978370461 SITI FATIMATUS ZAHROH P BANGKALAN1997-12-17
394 9960188778 NURHASANAH L BANGKALAN1997-12-20
395 9978311131 IKA HARDIYANI P BANGKALAN1997-12-23
396 9978319615 ATIKA YUSTIANA P BANGKALAN1997-12-27
397 9988154581 RIZA ANISHA ABDUL P BANGKALAN1998-01-07
398 9988153588 SHOHIB RAMADHANI L BANGKALAN1998-01-18
399 9968176170 CHOLILUR ROHMAN ARIP L BANGKALAN1998-02-02
400 9988154648 PUTRIYANA P BANGKALAN1998-02-14
401 9988176172 AHMAD WARISI L BANGKALAN1998-02-27
402 9988154585 NURUL MASMUNAH P BANGKALAN1998-03-03
403 9988172964 ROBIATUL ADAWIYAH P BANGKALAN1998-03-04
404 9978319602 USWATUN HASANAH P BANGKALAN1998-05-04
405 9968511415 MEGAWATI PURNAMA SARI P BANGKALAN1998-05-08
406 9978310097 WAHIDATUL ASSIDIKIYAH P PALANGKARAYA 1998-09-07
407 9988213255 FALENTINO ROSI L BANGKALAN1998-11-24
408 9942005034 BAGIATUS SHOLEHA P BANGKALAN1994-07-29
409 9963540196 M. RIDOK L BANGKALAN1996-02-04
410 9963540198 ZAENAL ABIDIN L BANGKALAN1996-12-08
411 9963540199 FAHRUL HAMIM L BANGKALAN1996-12-14
412 9972706022 ABDUL HOPI L BANGKALAN1997-02-08
413 9972706023 MAHSUS L BANGKALAN1997-03-17
414 9972706024 LULUK ATUL AINIYAH P BANGKALAN1997-04-20
415 9972706026 FARIDAH P BANGKALAN1997-06-30
416 9931400905 SAMSUL ARIFIN L PALANGKARAYA 1993-10-12
417 9942386756 ZAINAL ABIDIN L BANGKALAN1994-02-13
418 9942386757 MOH. HAFIDZ L BANGKALAN1994-04-27
419 9947635946 ABDUL KOMAR L BANGKALAN1994-05-21
420 9942386758 SAMI'I L BANGKALAN1994-06-01
421 9942386759 MUHAMMAD HASYIM L BANGKALAN1994-06-21
422 9942386760 SAFIRI L BANGKALAN1994-08-02
423 9953987681 LULUK HIDAYATI P BANGKALAN1995-04-23
424 9953987682 ABDUL ROHMAN L BANGKALAN1995-05-01
425 9953987683 EKO SETIYONO L SEMARANG1995-05-22
426 9953987684 KHUSNUL HOTIMAH P PALANGKARAYA 1995-06-15
427 9953987685 SITI AISYAH P BANGKALAN1995-07-07
428 9953987686 ASWAN MUBAROK L MALAYSIA 1995-07-14
429 9953987687 KIPTIYAH SUSI ROSANTI P BANGKALAN1995-08-10
430 9953987688 ANANG MAKRUF L BANGKALAN1995-10-06
431 9953987689 ABU KHORI BIN SYAIFUDDIN L BUKIT TENGAH 1995-10-31
432 9953987690 MOH WAHYUDI L PALANGKARAYA 1995-12-05
433 9963961022 MAD HUDI L BANGKALAN1996-01-01
100871154.xls.ms_office
14
SEPULU 8 20531191
SEPULU 8 20531191
TANAGURAH TIMUR 8 20531191
BANYIOR 8 20531191
BANYIOR 8 20531191
PRANCAK 8 20531191
SEPULU 8 20531191
PRANCAK 8 20531191
BANYUSANGKA 8 20531191
KELBUNG 8 20531191
PRANCAK 8 20531191
KALABETAN 8 20531191
KELBUNG 8 20531191
MANERON 8 20531191
BANYUSANGKA 8 20531191
MANERON 8 20531191
PRANCAK 8 20531191
LABUHAN 8 20531191
TANAGURAH BARAT 8 20531191
PRANCAK 8 20531191
KALABETAN 8 20531191
TANAGURAH TIMUR 8 20531191
BANYUSNAGKA 8 20531191
MANERON 8 20531191
PRANCAK 8 20531191
LABUHAN 8 20531191
BANYIOR 8 20531191
PRANCAK 8 20531191
MANERON 8 20531191
PRANCAK 8 20531191
LABUHAN 8 20531191
PRANCAK 8 20531191
PRANCAK 8 20531191
KALABETAN 8 20531191
BANYIOR 8 20531191
TANAGURAH BTIMUR 8 20531191
SEPULU 8 20531191
SEPULU 8 20531191
PRANCAK 8 20531191
PRANCAK 8 20531191
MANERON 8 20531191
SEPULU 8 20531191
BANYIOR 8 20531191
KALABETAN 8 20531191
GANGSEYAN 8 20531191
PRANCAK 8 20531191
GANGSEYAN 8 20531191
SEPULU 8 20531191
MANERON 8 20531191
KALABETAN 8 20531191
BANYUSANGKA 8 20531191
PRANCAK 8 20531191
PRANCAK 8 20531191
BANYONENG LAOK 8 20531191
KALABETAN 8 20531191
GANGSEYAN 8 20531191
SEPULU 8 20531191
BANYUSANGKA 8 20531191
GANGSEYAN 8 20531191
BANYONENG DAJAH 8 20531191
PRANCAK 8 20531191
PRANCAK 8 20531191
100871154.xls.ms_office
15
434 9963961023 HABIBUR ROCHMAN L BANGKALAN1996-01-06
435 9963961024 MOH. ROMADHON L BANGKALAN1996-01-20
436 9963961025 FATHUR ROHMAN L BANGKALAN1996-01-27
437 9963961026 RAFAURRAFIK L BANGKALAN1996-01-27
438 9963961027 SYAIFUL MUHIBBI L BANGKALAN1996-02-08
439 9963961028 FAJAR CHOIRUS SOLEH L BANGKALAN1996-03-07
440 9963961029 NOVAL AMIN L BANGKALAN1996-03-23
441 9963961030 FATHONI L BANGKALAN1996-04-09
442 9963961031 ROHANA P BANGKALAN1996-05-11
443 9963961032 ALI SODIKIN L BANGKALAN1996-05-17
444 9963961033 WAN MUH.SYAQIQIZWAN L KUALA LUMPUR 1996-06-09
445 9963961034 SAMSUL ARIFIN L BANGKALAN1996-06-09
446 9963961035 MESTUKI L PAMEKASAN1996-06-11
447 9963961036 MAHMUD L BANGKALAN1996-06-12
448 9963961037 FAIDATUL NIKMAH P BANGKALAN1996-06-16
449 9963961038 MUNAWAROH P BANGKALAN1996-06-17
450 9963961039 MOH. AMIN L BANGKALAN1996-06-20
451 9963961040 ACHMAD SIDIK L BANGKALAN1996-06-27
452 9963961041 MUHAMMAD SHOLEH L BANGKALAN1996-06-27
453 9963961042 MUSDALIFAH P BANGKALAN1996-07-12
454 9963961043 HOMZAH P BANGKALAN1996-07-15
455 9963961044 NURUL HAFIFI L BANGKALAN1996-07-16
456 9968574149 ACHMAD L BANGKALAN1996-07-17
457 9963961045 HUSNUL MUBAROK L BANGKALAN1996-08-02
458 9963961046 MOH. FAUSI L BANGKALAN1996-08-05
459 9963961047 MOH. ALI SOPRIYAN L JEMBER 1996-08-07
460 9963961048 ALI MUNIR ROHMAN L BANGKALAN1996-08-22
461 9963961049 FITRIA FERAYANTI P BANGKALAN1996-09-06
462 9963961050 JUMADI ALDI L BANGKALAN1996-09-08
463 9968511356 ABD. AZIZ L SAMBAS 1996-09-12
464 9963961051 AMIN L BANGKALAN1996-09-19
465 9963961052 ABD. HALIM L BANGKALAN1996-09-30
466 9963961053 NURFAIZAH P BANGKALAN1996-10-10
467 9963961054 HOSEN L BANGKALAN1996-10-13
468 9963961055 REFA JAZILATUL HASANAHP BANGKALAN1996-10-27
469 9963961056 AHMAD ZAHID YUSUF P BANGKALAN1996-11-15
470 9963961057 HOIRUDDIN L BANGKALAN1996-12-03
471 9963961058 SALIMAH P BANGKALAN1996-12-05
472 9963961059 ERNAWATI L BANGKALAN1996-12-09
473 9963961060 ANIS SULALLAH P BANGKALAN1996-12-15
474 9963961061 FAHRUDDIN L BANGKALAN1996-12-16
475 9963961062 SALAM L BANGKALAN1996-12-22
476 9973049156 ABD MALIK FAJAR L BANGKALAN1997-01-01
477 9973049157 NURUL HIKMAH P BANGKALAN1997-01-01
478 9973049158 ABD. MALIK L BANGKALAN1997-01-01
479 9973049159 HARIROTUL BAIDHOK P BANGKALAN1997-01-02
480 9973049160 EVALINA P BANGKALAN1997-02-02
481 9973049161 AKBAR SODIK L SURABAYA1997-03-06
482 9973049162 FATIMATUS ZAHROH P BANGKALAN1997-03-08
483 9973049163 DIAN AYU MANTIKA P BANYUWANGI 1997-03-09
484 9973049164 RESWANDIANTO L BANGKALAN1997-03-10
485 9978370281 YULIA P BANGKALAN1997-03-27
486 9973049165 MILAWATI P BANGKALAN1997-04-10
487 9973049166 ALI WAFA L BANGKALAN1997-04-10
488 9973049167 MOH. AMIN L BANGKALAN1997-04-11
489 9973049168 UMAR FARUQ L BANGKALAN1997-04-19
490 9973049169 FIFIN KURNIAWATI P BALIKPAPAN1997-04-20
491 9978310269 MANNAWATUN TOYYIBAH P PONTIANAK1997-05-14
492 9978370284 MUZAYYANA P BANGKALAN1997-05-18
493 9973049170 SULAIHA P BANGKALAN1997-05-28
494 9973049171 WASILAH P BANGKALAN1997-07-07
495 9973049172 ISMAIL L BANGKALAN1997-07-07
100871154.xls.ms_office
16
SEPULU 8 20531191
MANERON 8 20531191
BANYONENG LAOK 8 20531191
GANGSEYAN 8 20531191
GANGSEYAN 8 20531191
TANAGURAH BARAT 8 20531191
SEPULU 8 20531191
SAPLASAH 8 20531191
MANERON 8 20531191
KALABETAN 8 20531191
SEPULU 8 20531191
SAPLASAH 8 20531191
SEPULU 8 20531191
TANAGURAH BARAT 8 20531191
GUNELAP 8 20531191
GUNELAP 8 20531191
PRANCAK 8 20531191
LEMBUNG PASESER 8 20531191
LEMBUNG PASESER 8 20531191
BANYUSANGKA 8 20531191
LEMBUNG PASESER 8 20531191
LEMBUNG PASESER 8 20531191
SEPULU 8 20531191
TANAGURAH BARAT 8 20531191
BANYONENG LAOK 8 20531191
GANGSEYAN 8 20531191
PRANCAK 8 20531191
GANGSEYAN 8 20531191
BANYONENG LAOK 8 20531191
KALABETAN 8 20531191
MANERON 8 20531191
SEPULU 8 20531191
TANAGURAH BARAT 8 20531191
SAPLASAH 8 20531191
MANERON 8 20531191
TANAGURAH BARAT 8 20531191
LEMBUNG PASESER 8 20531191
LEMBUNG PASESER 8 20531191
SAPLASAH 8 20531191
LEMBUNG PASESER 8 20531191
LEMBUNG PASESER 8 20531191
GUNELAP 8 20531191
SEPULU 8 20531191
BANYUSANGKAH/Tj.BUMI 8 20531191
BANYIONENG LAOK 8 20531191
SEPULU 8 20531191
LEMBUNG PASESER 8 20531191
TANAGURAH BARAT 8 20531191
LEMBUNG PASESER 8 20531191
PRANCAK 8 20531191
PRANCAK 8 20531191
SEPULU 8 20531191
MANERON 8 20531191
LARANGAN GLINTONG 8 20531191
MANERON 8 20531191
LEMBUNG PASESER 8 20531191
KALABETAN 8 20531191
KALABETAN 8 20531191
SEPULU 8 20531191
MANERON 8 20531191
LEMBUNG PASESER 8 20531191
BANGSEREH 8 20531191
100871154.xls.ms_office
17
496 9973049173 YULYANTO NUR ROHMAN L PALANGKARAYA 1997-07-13
497 9978310273 LIAWATI P PALANGKARAYA 1997-08-06
498 9973049174 RIZKIYAH P BANGKALAN1997-08-15
499 9973049175 FATIMATUS ZAHROH P BANGKALAN1997-08-17
500 9973049176 RISQI MUBAROK L BANGKALAN1997-08-27
501 9973049177 ABDUL HAKIM L BANGKALAN1997-08-29
502 9973049178 QOMARUDDIN L BANGKALAN1997-09-15
503 9973049179 NUR JANNAH P BANGKALAN1997-09-18
504 9968574152 ZAINUL ARIFIN L BANGKALAN1997-09-26
505 9973049180 ROBIATUL ADEWIYAH P BANGKALAN1997-10-01
506 9973049181 JUMRIYAH P BANGKALAN1997-10-15
507 9973049182 ARINI HIDAYATI P SAMBAS 1997-11-01
508 9973049183 NUR LAILA P BANGKALAN1997-11-11
509 9973049184 LISA NURJANNAH P BANGKALAN1997-12-06
510 9973049185 MUHAMMAD YUSUF L BANGKALAN1997-12-25
511 9982601374 SUHAR L BANGKALAN1998-02-09
512 9982601375 MEGA FEBRIANA P BANGKALAN1998-02-25
513 9988153756 NURUL BAITI DEWI P BANGKALAN1998-06-28
514 9982601376 NUR HALISA P BANGKALAN1998-08-24
515 9982601377 HUSNUL HOTIMAH P BANGKALAN1998-09-01
516 9983045628 RIEKI WAHYU ILLAHI R L BANGKALAN1998-01-11
517 9942886590 SUPIYAH P MALAYSIA 1994-10-25
518 9973607646 IKROMAH P BANGKALAN1997-12-04
519 9983045693 ULFATUL HASANAH P BANGKALAN1998-05-13
520 9983068767 FATHUL MUIN L BANGKALAN1998-06-22
521 9973645045 RISKIYATUL MUAWWENAHP PALANGKARAYA 1997-07-27
522 9983068773 RUKIYAH P BANGKALAN1998-10-14
523 9983068774 SRI KOMARIYAH ULFA P BANGKALAN1998-04-19
524 9983068776 A. FATAHILLAH L BANGKALAN1998-05-13
525 9973645058 A. RYAN RICKY PRATAMA PUTRA L BANGKALAN1997-08-30
526 9973645101 AAN AINUL SIDIK L BANGKALAN1997-05-28
527 9964720556 ABD.LATIP L PALANGKARAYA 1996-06-18
528 9983068819 ABD.RAHMAN L BANGKALAN1998-07-10
529 9973645107 ABD.WAHID L PALANGKARAYA 1997-01-20
530 9964720565 ABDUL HAFID L BANGKALAN1996-03-16
531 9973645118 ABDUL QOSIM L BANGKALAN1997-02-22
532 9983068828 ABDUL ROZAQ L BANGKALAN1998-03-03
533 9993867570 ABDULLAH FAQIH L BANGKALAN1999-06-15
534 9973645130 ABDULLAH KHON L BANGKALAN1997-08-30
535 9973645132 ABDUS SYAKUR L BANGKALAN1997-11-22
536 9973648121 ACHMAD FAIS L BANGKALAN1997-01-14
537 9973648132 ACHMAD FAUS L BANGKALAN1997-01-14
538 9983081183 ADITIYA L Bangkalan 1998-07-07
539 9973648148 AHMAD ARIFIN L SURABAYA1997-10-20
540 9973648150 AHMAD BADRUDIN L BANGKALAN1997-08-04
541 9973648157 AHMAD DANI L Jember 1997-12-17
542 9954688559 AHMAD FAUZAN L BANGKALAN1995-06-13
543 9983081201 AINUR ROSID L BANGKALAN1998-09-23
544 9964724517 AISATUN L BANGKALAN1996-06-22
545 9973648167 ALAIKAR ROHIM L BANGKALAN1997-11-17
546 9954688560 ALBAB L BANGKALAN1995-05-06
547 0060013713 ALVIN KHOIRON L BANGKALAN1997-10-27
548 9973648170 AMIN MAKKI L BANGKALAN1997-01-17
549 9983081220 ANDI ROMADHON L BANGKALAN1998-01-20
550 9973648177 ANDRIAN MAULANA L BANGKALAN1997-09-19
551 9983081232 APRILIA WARDHANI P Bangkalan 1998-04-02
552 9983081237 ARIF ARIFIN L PALANGKARAYA 1998-07-17
553 9983081244 ARIFATUN NAFISAH P BANGKALAN1998-09-16
554 9964724524 ARISKA ALFIANI P BANGKALAN1996-03-23
555 9983081247 ARVIN HAKIM ASHIDDIQI L BANGKALAN1998-07-28
556 9964724528 ASMAUL HUSNA P BANGKALAN1996-08-02
557 9973648189 ASRUL HAMID L BANGKALAN1997-06-13
100871154.xls.ms_office
18
PRANCAK 8 20531191
KALABETAN 8 20531191
LEMBUNG PASESER 8 20531191
TANAGURAH BARAT 8 20531191
LEMBUNG PASESER 8 20531191
LEMBUNG PASESER 8 20531191
MANERON 8 20531191
LEMBUNG PASESER 8 20531191
SEPULU 8 20531191
KALABETAN 8 20531191
TANAGURAH BARAT 8 20531191
KALABETAN 8 20531191
SEPULU 8 20531191
BANYUSANGKA 8 20531191
LEMBUNG PASESER 8 20531191
LEMBUNG PASESER 8 20531191
SAPLASAH 8 20531191
KALABETAN 8 20531191
KALABETAN 8 20531191
LARANGAN GLINTONG 8 20531191
LABUHAN 7 20531191
GLINTONG - KLAMPIS 7 20531191
TANAGURAH TIMUR - SEPULU 7 20531191
GUNELAP - SEPULU 7 20531191
PRANCAK 7 20531191
Banyior -Sepulu 7 20531191
Prancak -Sepulu 7 20531191
Sepulu 7 20531191
Kelbung - Sepulu 7 20531191
Sepulu 7 20531191
Sepulu 7 20531191
Banyior- Sepulu 7 20531191
Banyior - Sepulu 7 20531191
Maneron - Sepulu 7 20531191
Tana Gurah Barat - Sepulu 7 20531191
Sepulu 7 20531191
Banyior - Sepulu 7 20531191
Maneron - Sepulu 7 20531191
Sepulu 7 20531191
Gangseyan - Sepulu 7 20531191
Sepulu 7 20531191
Sepulu 7 20531191
Prancak 7 20531191
Kelbung - Sepulu 7 20531191
Kelbung 7 20531191
Prancak 7 20531191
Prancak 7 20531191
Sepulu 7 20531191
Kelbung 7 20531191
Klapyan - Sepulu 7 20531191
Gangseyan - Sepulu 7 20531191
Maneron - Sepulu 7 20531191
Sepulu 7 20531191
Sepulu 7 20531191
Banyior - Sepulu 7 20531191
SEPULU 7 20531191
Sepulu 7 20531191
Prancak 7 20531191
Sepulu 7 20531191
Prancak 7 20531191
Kelbung - Sepulu 7 20531191
Sepulu 7 20531191
100871154.xls.ms_office
19
558 9983100369 Devi Tri Ratnasari P Bangkalan 1998-02-20
559 9993887090 Dewi Nawirah P Bangkalan 1999-11-06
560 9983100371 Febriani Nasuha P Bangkalan 1998-02-10
561 9973680443 Haryati P Bangkalan 1997-06-07
562 9973680445 Holel L Bangkalan 1997-02-13
563 9973680446 Idul Fitrih L Bangkalan 1997-09-07
564 9983100374 Iqmarul Ma'rifah P Bangkalan 1998-11-10
565 9973680447 Kamelia P Bangkalan 1997-02-15
566 9973680449 Khoiruddin L Bangkalan 1997-10-28
567 9983100378 Kurniawati P Bangkalan 1998-04-24
568 9983100382 Laila Farah P Bangkalan 1998-09-09
569 9973680460 M.Jasuli L Bangkalan 1997-11-25
570 0060014005 M.Kwalid Fawazir L Bangkalan 2006-09-16
571 0060014006 Maisyaroh P Bangkalan 2006-07-29
572 9973680462 Moh.Mustain Hasan L Bangkalan 1997-03-18
573 9983100385 Muh.Muhajirin L Bangkalan 1998-05-17
574 9983100386 MUHAMMAD FATAHILLAH L MADURA 1998-08-08
575 9973680467 Muhammad Fawes L Bangkalan 1997-04-05
576 9983100394 Muhammad Yusri L Bangkalan 1998-02-02
577 9973680468 Muhassin Iqbal Assyari L Bangkalan 1997-12-31
578 9983100395 Mutmainnah P Bangkalan 1998-01-01
579 9983100396 Nur Widiyawati P Bangkalan 1998-11-07
580 9964748047 Nuril Musdalifah P Bangkalan 1996-07-08
581 9973680474 Putantra Bery Yulianza L Bangkalan 1997-07-21
582 9983100401 Raudhatul Jannah P Bangkalan 1998-08-28
583 9983100402 SIFAUS SUDUR L BANGKALAN1998-07-11
584 9973680476 Siti Ramlah P Bangkalan 1997-06-03
585 9993887120 Siti Rosalina P Bangkalan 1999-02-13
586 9983100405 Siti Zulaiha Ardiana P Bangkalan 1998-02-11
587 9983100406 Solafuddin L Bangkalan 1998-05-18
588 9973680478 Subakti Ahmad Ishaq L Sidoarjo 1997-10-26
589 9964748062 Zulaikha P Bangkalan 1996-04-09
590 9973680480 Ummy Maysaroh P Bangkalan 1997-11-07
591 9973680481 Yati Oktavia P Malaysia 1997-03-10
592 9973680482 Zainal Andry Yusuf L Bangkalan 1997-02-17
593 0060014012 Zaini L Bangkalan 2006-04-16
594 9973687589 Aini Wulandari P Bangkalan 1997-08-03
595 9973687703 Endang Fitriyaningsih P Bangkalan 1997-09-09
596 9983108620 Fahris L Bangkalan 1998-09-08
597 0070010203 Faisal Ulum L Bantul 2007-06-23
598 9983108629 Fitriyatus Syariah P Bangkalan 1998-02-18
599 9983108632 Gufron L Bangkalan 1998-10-10
600 9993906852 Hamidatul Hasanah P Bangkalan 1999-10-29
601 9983108638 Hulyatul Jamilah P Bangkalan 1998-12-08
602 9973687716 Husnul Yatik As'ari P Bangkalan 1997-09-16
603 9983108646 Irman Hardiyanto L Bangkalan 1998-06-01
604 9983108648 Jasimul Yaqin L Bangkalan 1998-07-03
605 9983108652 Juliani Rohmah P Bangkalan 1998-07-16
606 9973687730 Komariyah P Bangkalan 1997-12-21
607 9973687731 Lukmanul Hakim L Bangkalan 1997-11-01
608 9983108656 M.Taufiq L Surabaya 1998-02-04
609 9964765419 Misbar L Bangkalan 1996-06-25
610 9973687738 Moh.Kholilur Rohman L Bangkalan 1997-07-07
611 9973687739 Moh.yasir L Bangkalan 1997-08-25
612 9964765428 Moh.Jumali L Bangkalan 1996-09-07
613 9983108664 Moh. Rizal Arisman L Bangkalan 1998-11-02
614 9983108666 Moh.Zainul Arifin Faiz L Bangkalan 1998-01-12
615 9983108669 Muddalifah P Bangkalan 1998-01-06
616 9973687747 Muhafadoh P Bangkalan 1997-09-19
617 9983108675 Muhammad Imam L Bangkalan 1998-07-05
618 9983108676 Munawaroh P Bangkalan 1998-03-24
619 9983108677 Nikmatus Salamah P Bangkalan 1998-07-07
100871154.xls.ms_office
20
Sepulu 7 20531191
Banyoning Dajah 7 20531191
Sepulu 7 20531191
Sepulu 7 20531191
Kelbung - Sepulu 7 20531191
Gangseyan -Sepulu 7 20531191
Sepulu 7 20531191
Sepulu 7 20531191
Maneron - Sepulu 7 20531191
Sepulu 7 20531191
Sepulu 7 20531191
Kelbung - Sepulu 7 20531191
Sepulu 7 20531191
Sepulu 7 20531191
Sepulu 7 20531191
Maneron - Sepulu 7 20531191
Sepulu 7 20531191
Sepulu 7 20531191
Sepulu 7 20531191
Prancak - Sepulu 7 20531191
Maneron - Sepulu 7 20531191
Prancak - sepulu 7 20531191
Prancak -Sepulu 7 20531191
Sepulu 7 20531191
Sepulu 7 20531191
Klabean - Sepulu 7 20531191
Kalabetan Sepulu 7 20531191
Labuhan - Sepulu 7 20531191
Sepulu 7 20531191
Kelbung - Sepulu 7 20531191
Sepulu 7 20531191
Prancak 7 20531191
Labuhan - Sepulu 7 20531191
Banyoning Dajah - Geger 7 20531191
Sepulu 7 20531191
Kelbung 7 20531191
Prancak 7 20531191
Banyusangkah - Tj.Bumi 7 20531191
Lembung Paseser 7 20531191
Sepulu 7 20531191
Prancak - Sepulu 7 20531191
Banyoning Dajah 7 20531191
Ds.Banyoning Dajah- Geger 7 20531191
Prancak -Sepulu 7 20531191
Sepulu 7 20531191
Maneron - Sepulu 7 20531191
Sepulu 7 20531191
Sepulu 7 20531191
Sepulu 7 20531191
Sepulu 7 20531191
Ds.Kelbung - Sepulu 7 20531191
Maneron - Sepulu 7 20531191
Maneron - Sepulu 7 20531191
Sepulu 7 20531191
Maneron - Sepulu 7 20531191
Sepulu 7 20531191
Prancak - Sepulu 7 20531191
Sepulu 7 20531191
Banyior - Sepulu 7 20531191
Sepulu 7 20531191
Ds.Bangsereh - Sepulu 7 20531191
Ds.Tangurah Timur - Sepulu 7 20531191
100871154.xls.ms_office
21
620 9973687750 Qurrotul A' yun P Bangkalan 1997-09-04
621 9973687752 Rahmadani P Bangkalan 1997-06-02
622 9964765447 Roudhatul Jannah P Bangkalan 1996-12-26
623 9973687755 Samsul Anwar L Bangkalan 1997-10-05
624 9973687757 Sodik Irawanto L Ambon 1997-08-22
625 9983108692 Sofiatul Ainiyah P Bangkalan 1998-05-12
626 9983108693 Suhailah P Bangkalan 1998-02-17
627 9973687763 Sukiman L Bangkalan 1997-05-20
628 9964765461 Suliyah P Bangkalan 1996-11-10
629 9983108695 Wasilatul Adhimah P Bangkalan 1998-03-23
630 9983108696 Yudi Hendrawan L Palangkaraya1998-05-10
631 9993906900 Ani Maftuhah P Bangkalan 1999-05-02
632 9973688359 Ahmad Rizal L Bangkalan 1997-07-19
633 9973688364 Azizah P Bangkalan 1997-04-18
634 9964766258 Choirul Anam L Bangkalan 1996-02-27
635 9973688373 Defri Dimas Santara L Bangkalan 1997-05-28
636 9973688387 Dharmawan Widhianto L Bangkalan 1997-09-17
637 9973688391 Edi Afandi L Bangkalan 1997-02-01
638 9983109106 Farid L Bangkalan 1998-08-04
639 9973688414 Fawaidur Rohmah P Bangkalan 1997-12-09
640 9973688429 Gita Andriani P Bangkalan 1997-03-29
641 9993907378 Istilatifah P Bangkalan 1999-04-22
642 9983109121 Khoirul Anam L Bangkalan 1998-09-10
643 9973688439 Kurrohul Aini P Bangkalan 1997-02-21
644 9983109148 Matsa'i L Bangkalan 1998-03-24
645 9983109149 Miftahul Ulum L Bangkalan 1998-12-22
646 9983109151 Moch Helmi L Bangkalan 1998-10-11
647 9973688459 Moh.Hamim L Bangkalan 1997-05-12
648 9973688499 Moh. Ilham Burhanuddin L Bangkalan 1997-06-09
649 9973688501 Mohammad Amin L Bangkalan 1997-06-17
650 9993907406 Muhammad Faiz L Selangor 1999-03-24
651 9993907416 Muna Santi P Bangkalan 1999-01-29
652 9973688512 Mustofa L Bangkalan 1997-07-15
653 9973688532 Nur Nafisah P Malaysia 1997-05-23
654 9964766369 Nurul Qomariyah P Bangkalan 1996-04-05
655 9973688537 Rosiyanto L Bangkalan 1997-08-07
656 9983109275 Saiful Arif L Bangkalan 1998-07-06
657 9973688548 Siti Fatimah P Palangkaraya1997-06-13
658 9983109288 Siti Mukarromah P Bangkalan 1998-05-14
659 9973688558 Siti Sofiyah P Bangkalan 1997-07-20
660 9983109309 Sohida P Bangkalan 1998-06-16
661 9983109313 Suaidah P Bangkalan 1998-02-15
662 9973688567 Ulvatun Anisah P Banyumas 1997-08-28
663 9964766382 Usman Affan L Bangkalan 1996-10-04
664 9983109327 Fathur Rohman L Bangkalan 1998-11-09
665 9954726825 Abdul Bahri L Bangkalan 1995-10-07
666 9973688632 Didik Ardiansyah L Bangkalan 1997-06-17
667 9973688643 Evien Febrina Suryani P Trenggalek 1997-02-05
668 9973688648 Fadilatus Sholehah P Bangkalan 1997-09-04
669 9973688663 Fathur Rosi L Bangkalan 1997-03-15
670 9983109387 Fatimatus Zahroh P Bangkalan 1998-04-02
671 9973688669 Heri Novrizal L Palangkaraya1997-11-21
672 9983109391 Homsatun P Bangkalan 1998-03-26
673 9983109394 Hoyriyah P Bangkalan 1998-05-13
674 9964766448 Ika yanti P Lamongan 1996-10-27
675 9983109402 Jemiatul Arofah P Bangkalan 1998-07-03
676 9983109403 Khoirul Maulana L Palangkaraya1998-07-07
677 9983109405 Khoibul Umam L Bangkalan 1998-05-20
678 9983109415 Lukman Hakim L Bangkalan 1998-11-18
679 9983109418 M.Hevky Adhayadus Salam L Sidoarjo 1998-04-18
680 9983109419 Mahsun L Bangkalan 1998-06-15
681 9973688707 Marsup L Bangkalan 1997-10-03
100871154.xls.ms_office
22
Prancak - Sepulu 7 20531191
Ds.Tangurah Barat - Sepulu 7 20531191
Lembung Paseser 7 20531191
Lembung Paseser - Sepulu 7 20531191
Ds. Lembung Paseser 7 20531191
Ds.Banyior -Sepulu 7 20531191
Sepulu 7 20531191
Maneron - Sepulu 7 20531191
Sepulu 7 20531191
Sepulu 7 20531191
Ds.Gangseyan - Sepulu 7 20531191
Ds.Bangsereh - Sepulu 7 20531191
Lembung Paseser 7 20531191
Sepulu 7 20531191
Sepulu 7 20531191
Banyoning Dajah - Geger 7 20531191
Maneron - Sepulu 7 20531191
Sepulu 7 20531191
Lembung Paseser - Sepulu 7 20531191
Prancak - Sepulu 7 20531191
Prancak - Sepulu 7 20531191
Ds.Tanagurah Barat - Sepulu 7 20531191
Prancak - Sepulu 7 20531191
Sepulu 7 20531191
Ds.Banyoneng Dajah - Geger 7 20531191
Klapyan - Sepulu 7 20531191
Prancak - Sepulu 7 20531191
Sepulu 7 20531191
Maneron - Sepulu 7 20531191
Ds.Banyusangkah Tj.Bumi 7 20531191
Ds.Kalabetan - Sepulu 7 20531191
Ds.Banyoning Dajah - Geger 7 20531191
Ds.Maneron 7 20531191
Ds.Labuhan - Sepulu 7 20531191
Sepulu 7 20531191
Ds.Labuhan - Sepulu 7 20531191
Prancak - Sepulu 7 20531191
Ds. Kelbung Sepulu 7 20531191
Ds.Saplasah - Sepulu 7 20531191
Ds.angurah Barat - Sepulu 7 20531191
Prancak - Sepulu 7 20531191
Lembung Paseser - Sepulu 7 20531191
Prancak - Sepulu 7 20531191
Maneron - Sepulu 7 20531191
Ds.Banyoneng Dajah - Geger 7 20531191
Ds. Banyoneng Dajah - Sepulu 7 20531191
Ds.Maneron - Sepulu 7 20531191
Sepulu 7 20531191
Sepulu 7 20531191
Prancak - Sepulu 7 20531191
Lembung Paseser Sepulu 7 20531191
Ds.Kalabetan Sepulu 7 20531191
Sepulu 7 20531191
Prancak - Sepulu 7 20531191
Ds.Lembung Paseser - Sepulu 7 20531191
Prancak - Sepulu 7 20531191
Ds.Kalabetan - Sepulu 7 20531191
Prancak - Sepulu 7 20531191
Prancak - Sepulu 7 20531191
Asem Jajar - Ahatan Sepulu 7 20531191
Ds.Banyusangkah - Tj.Bumi 7 20531191
Ds.Kelbung - Sepulu 7 20531191
100871154.xls.ms_office
23
682 9973688710 Mofid Firdauzi L Bangkalan 1997-11-06
683 9973688713 Moh.Alif Huzeini L Surabaya 1997-02-17
684 9973688715 Mutmainnah P Bangkalan 1997-04-25
685 9973688719 Muzayyanah P Bangkalan 1997-11-28
686 9983109428 Nahlah Rohmatul Jannah P Madura 1998-05-07
687 9983109429 Nainul Wafa L Bangkalan 1998-04-21
688 9983109434 Nur Halisa P Bangkalan 1998-08-29
689 9973688801 Sami Sulaiman L Bangkalan 1997-11-14
690 9973688804 Siti Sahroh P Bangkalan 1997-12-12
691 9973688807 Stiven Denanta L Bangkalan 1997-04-05
692 9983109482 Sulaimah P Bangkalan 1998-06-21
693 9983109487 Syaiful Rizal L Bangkalan 1998-06-21
694 9973688819 Ulfaroh P Bangkalan 1997-04-13
695 9973688823 Yunus L Bangkalan 1997-10-19
696 9973700103 Badriyah P Bangkalan 1997-03-03
697 9983120857 Faizarizta Maulana L Bangkalan 1998-03-10
698 9964767974 Hairus Soleh L Bangkalan 1996-09-03
699 9983120870 Hoirul Anam L Bangkalan 1998-06-19
700 9964767984 HARTINA NINGSIH P Bangkalan 1996-08-11
701 9954728314 Ilham Budiaman L Bangkalan 1995-07-14
702 9973700121 Jamilatul Mar'ah P Bangkalan 1997-07-15
703 9973700123 Krusita Arifin P Bangkalan 1997-10-10
704 9983120878 Kurnia Sandi L Bangkalan 1998-02-15
705 9993909241 Mahsus Riyadi L Bangkalan 1999-06-12
706 9983120881 Maymuna P Bangkalan 1998-03-12
707 9964767988 Matin Rabbani L Bangkalan 1996-12-21
708 9973700128 Mirna Rohmania P Bangkalan 1997-09-07
709 9983120885 Moh.Iqbal Habibi L Bangkalan 1998-02-15
710 9983120890 MOH. SAHID L BANGKALAN1998-05-12
711 9983120895 Moh.Sifa'ul Khulub L Bangkalan 1998-05-21
712 9973700137 Moh.Shofi L Bangkalan 1997-08-02
713 9983120919 Moh.Wasil Syahroni L Bangkalan 1998-11-07
714 9973700163 MUTMAINNAH P BANGKALAN1997-02-02
715 9973700165 Nofi Silistiana P Bangkalan 1997-11-24
716 9983120928 Nur Zaitur Reza Fyka Anjani P Bangkalan 1998-07-01
717 9993909264 Rezekita Fitria Indah Aurelia P Palangkaraya1999-01-18
718 9983120936 Rofiana Nur Azizah P Gresik 1998-03-29
719 9973700169 Roudhotul Jannah P Bangkalan 1997-04-06
720 9954728361 Suleha P Bangkalan 1995-06-20
721 9973700174 Syaifuddin L Bangkalan 1997-10-15
722 9964768013 Toricxyl Yakin L Bangkalan 1996-11-13
723 9964768021 Uswatun Hasanah P Bangkalan 1996-07-09
724 9973700192 Wasilah P Bangkalan 1997-10-17
725 9983120965 Wasilatur Rofiah P Bangkalan 1998-03-04
726 9983120974 Siti Nurul Maulidya P Bangkalan 1998-06-27
727 9964768722 Ahmad Baidowi L Bangkalan 1996-03-22
728 9983121562 Dewi P Palangkaraya1998-08-23
729 9993909962 Dian Islamiati P Bangkalan 1999-04-04
730 9973700971 Dian Handayani P Bangkalan 1997-12-12
731 9973700974 Djamaluddin L Bangkalan 1997-03-04
732 9954728921 Fathor Rosi L Bangkalan 1995-06-19
733 9973700978 Fathur Rohman L Bangkalan 1997-01-05
734 9973700980 Haryadi L Bangkalan 1997-07-07
735 9983121569 Ilmiyatul Firdaus P Bangkalan 1998-04-21
736 9983121570 Istikhoroh P Bangkalan 1998-09-27
737 9973700983 Khusnul Khotimah P Bangkalan 1997-09-06
738 9973700988 Lefia Sakina P Pasuruan 1997-12-13
739 9983121574 Lutfi Asrori L Bangkalan 1998-10-14
740 9983121577 M.B. Jauhari L Bangkalan 1998-07-28
741 9973700991 M. Syaiful Bahri L Bangkalan 1997-04-07
742 9973700995 Moh.Muhri L Bangkalan 1997-11-16
743 9964768848 Muhammad Ali Imbron L Bangkalan 1996-10-27
100871154.xls.ms_office
24
Ds.Lembung Paseser - Sepulu 7 20531191
Sepulu 7 20531191
Ds.Kelbung -Sepulu 7 20531191
Prancak - Sepulu 7 20531191
Sepulu 7 20531191
Sepulu 7 20531191
Sepulu 7 20531191
Prancak - Sepulu 7 20531191
Ds.Lembung Paseser - Sepulu 7 20531191
Sepulu 7 20531191
Banyior - Sepulu 7 20531191
Prancak -Sepulu 7 20531191
Kelbung - Sepulu 7 20531191
Prancak - Sepulu 7 20531191
Maneron - Sepulu 7 20531191
Ds.Lembung Paseser - Sepulu 7 20531191
Sepulu 7 20531191
Kelbung - Sepulu 7 20531191
Maneron - Sepulu 7 20531191
Banyusangkah - Sepulu 7 20531191
Ds.Labuhan - Sepulu 7 20531191
Sepulu 7 20531191
Ds.Banyoning Dajah - Geger 7 20531191
Ds.Banyior - Sepulu 7 20531191
Sepulu 7 20531191
Ds.Labuhan - Sepulu 7 20531191
Sepulu 7 20531191
Sepulu 7 20531191
Ds.Banyior - Sepulu 7 20531191
Ds.Banyoning Dajah - Geger 7 20531191
Sepulu 7 20531191
Prancak - Sepulu 7 20531191
Ds.Lembung Paseser -Sepulu 7 20531191
Ds.Labuhan - Sepulu 7 20531191
Sepulu 7 20531191
Ds.Kalbetan -Sepulu 7 20531191
Prancak - Sepulu 7 20531191
Ds.Banyior - Sepulu 7 20531191
Prancak - Sepulu 7 20531191
Sepulu 7 20531191
Sepulu 7 20531191
Sepulu 7 20531191
Ds.Kalbetan - Sepulu 7 20531191
Sepulu 7 20531191
Ds.Banyusangkah - Tj.Bumi 7 20531191
Ds.Lembung Paseser - Sepulu 7 20531191
Ds.Kalbetan - Sepulu 7 20531191
Maneron - Sepulu 7 20531191
Maneron - Sepulu 7 20531191
Ds.Labuhan - Sepulu 7 20531191
Sepulu 7 20531191
Prancak -Sepulu 7 20531191
Sepulu 7 20531191
Sepulu 7 20531191
Ds.Lembung Paseser - Sepulu 7 20531191
Prancak - Sepulu 7 20531191
Sepulu 7 20531191
Prancak - Sepulu 7 20531191
Sepulu 7 20531191
Prancak - Sepulu 7 20531191
Ds. Bangsereh - Sepulu 7 20531191
Prancak -Sepulu 7 20531191
100871154.xls.ms_office
25
744 9983121581 Moh.Sofi L Bangkalan 1998-07-10
745 9964768851 Moh.Surul L Bangkalan 1996-09-12
746 9983121582 Muhammad Weridatul Khoir L Bangkalan 1998-04-30
747 9983121583 Muhammad Hafid L Surabaya 1998-07-27
748 9973701007 Musdalifah P Bangkalan 1997-07-23
749 9973701009 Novi Lailatul Arba' P Bangkalan 1997-11-25
750 9973701013 Nur Afifah P Bangkalan 1997-08-01
751 9983121594 Nur Safitri P Bangkalan 1998-01-29
752 9973701027 Nurul Yaqinah P Surabaya 1997-12-06
753 9973701030 Prayogha Dwi Christyan L Bangkalan 1997-06-04
754 9983123100 Reny Kusuma Wardhani P Bangkalan 1998-11-16
755 9983123103 Rihomah P Bangkalan 1998-01-12
756 9983123107 Siful Anwar L Palangkaraya1998-02-11
757 9983123110 Sunarti P Palangkaraya1998-10-07
758 9964780303 Taufikur Rohman L Bangkalan 1996-05-04
759 9983123114 Tohari L Bangkalan 1998-07-15
760 9983123117 Zamrotus Zahro P Bangkalan 1998-07-14
761 9973703273 Chusin Mubaroq L Sambas 1997-08-14
762 9973703274 Farisal Aiman L Bangkalan 1997-04-07
763 9983124005 Fatimatus Zahroh P Bangkalan 1998-11-12
764 9973703278 Fatin Hanani P Bangkalan 1997-10-10
765 9973703279 Hainul Yakin L Sambas 1997-08-10
766 9954740843 Halil L Bangkalan 1995-06-09
767 9973703291 Inayatul Karomah P Bangkalan 1997-01-05
768 9973703312 Istibsaroh P Bangkalan 1997-12-04
769 9964781266 Khoirul Umam Hakim L Bangkalan 1996-06-12
770 9993922997 Luthfi L Bangkalan 1999-01-13
771 9973703328 Maisunnah P Malaysia 1997-06-22
772 9964781272 Moh.Yunus L Bangkalan 1996-05-21
773 9973703331 Moh.Fahruddin Fitrian YahyaL Kab.Pasir 1997-06-30
774 9964781281 Moh.Jabbar L Bangkalan 1996-05-26
775 9973703461 Moh.Mahfud L Bangkalan 1997-05-31
776 9993923079 Moh.Yazin L Bangkalan 1999-05-25
777 9973703619 Mohammad Afifuddin L Bangkalan 1997-11-06
778 9983124295 Mohammad Rizki Afandi L Bangkalan 1998-01-13
779 9973703671 Mohlis L Bangkalan 1997-09-28
780 9993923256 Muhammad Afif L Bangkalan 1999-01-19
781 9983124333 Musyfiqoh P Bangkalan 1998-11-06
782 9993923283 Nur Fadilah P Palangkaray1999-11-05
783 9983124363 Nur Fitria P Bangkalan 1998-02-03
784 9983124364 Nurul Hisam L Bangkalan 1998-06-20
785 9973703721 Rif'ah P Bangkalan 1997-04-14
786 9964781607 Roudatul Jannah P Bangkalan 1996-11-07
787 9983124382 Rusdiana P Bangkalan 1998-05-19
788 9964781614 Safiah P Lubuk Besar1996-07-05
789 9954741312 Saiful Anam L Bangkalan 1995-07-15
790 9993923316 Siti Maimuna L Bangkalan 1999-05-07
791 9954741318 Siti Subaida L Malaysia 1995-05-16
792 9983124414 Sofiatun Jamilah P Bangkalan 1998-03-28
793 9973703771 Suaibah Islamiyah P Bangkalan 1997-10-25
794 9983124419 Suhaymi Abi Julianto Eka Putra L Bangkalan 1998-07-03
795 9964781642 Syamsul Arifin L Bangkalan 1996-10-08
796 9973703776 Syarif Hidayatullah L Bangkalan 1997-11-09
797 9973703778 Taufikur Rohman L Bangkalan 1997-06-16
798 9983124423 Vivin Ariyani P Palangkaraya1998-06-26
799 9973703780 Nur Hanizah P Bangkalan 1997-01-28
100871154.xls.ms_office
26
Ds.Gangseyan - Sepulu 7 20531191
Ds.Banyior - Sepulu 7 20531191
Maneron - Sepulu 7 20531191
Ds.Kelbung - Sepulu 7 20531191
Sepulu 7 20531191
Ds.Labuhan - Sepulu 7 20531191
Maneron - Sepulu 7 20531191
Maneron - Sepulu 7 20531191
Sepulu 7 20531191
Sepulu 7 20531191
Sepulu 7 20531191
Prancak - Sepulu 7 20531191
Sepulu 7 20531191
Ds.Kalbean - Sepulu 7 20531191
Sepulu 7 20531191
Sepulu 7 20531191
Maneron - Sepulu 7 20531191
Ds.Kalabetan - Sepulu 7 20531191
Sepulu 7 20531191
Ds.Kalbean -Sepulu 7 20531191
Ds.Lembung Paseser - Sepulu 7 20531191
Ds.Lembung Paseser - Sepulu 7 20531191
Ds.Gangseyan - Sepulu 7 20531191
Ds.Banyusangkah - Tj.Bumi 7 20531191
Ds.Saplasah - Sepulu 7 20531191
Ds.Kelbung - Sepulu 7 20531191
Ds.Gangseyan - Sepulu 7 20531191
Ds.Kelbung - Sepulu 7 20531191
Sepulu 7 20531191
Maneron - Sepulu 7 20531191
Ds.Gangseyan -Sepulu 7 20531191
Maneron - Sepulu 7 20531191
Ds.Banyoneng Lao' -Geger 7 20531191
Prancak - Sepulu 7 20531191
Ds.Labuhan -Sepulu 7 20531191
Ds.Labuhan - Sepulu 7 20531191
Sepulu 7 20531191
Maneron - Sepulu 7 20531191
Ds.Kelbung - Sepulu 7 20531191
Sepulu 7 20531191
Sepulu 7 20531191
Ds.Tanagurah Timur - Sepulu 7 20531191
Prancak - Sepulu 7 20531191
Sepulu 7 20531191
Ds.Kelbung - Sepulu 7 20531191
Ds.Banyoneng Dajah - Geger 7 20531191
Ds.Banyior - Sepulu 7 20531191
Ds.Labuhan - Sepulu 7 20531191
Sepulu 7 20531191
Sepulu 7 20531191
Sepulu 7 20531191
Sepulu 7 20531191
Ds.Kalabetan - Sepulu 7 20531191
Ds. Labuhan - Sepulu 7 20531191
Sepulu 7 20531191
Ds.Lembung Paseser - Sepulu 7 20531191
100871154.xls.ms_office

You're Reading a Free Preview

Mengunduh
scribd
/*********** DO NOT ALTER ANYTHING BELOW THIS LINE ! ************/ var s_code=s.t();if(s_code)document.write(s_code)//-->